Regional Weather Roundup
Issued by NWS Charleston, SC

Current Version | Previous Version | Graphics & Text | Print | Product List | Glossary On
Versions: 1 2 3 4 5 6 7 8 9 10 11 12 13 14 15 16 17 18 19 20 21 22 23 24 25 26 27 28 29 30 31 32 33 34 35 36 37 38 39 40 41 42 43 44 45 46 47 48 49 50
000
ASUS42 KCHS 280327
RWRCHS

REGIONAL WEATHER ROUNDUP
NATIONAL WEATHER SERVICE CHARLESTON SC
1100 PM EDT WED MAY 27 2015

NOTE: "FAIR" INDICATES FEW OR NO CLOUDS BELOW 12,000 FEET WITH NO
SIGNIFICANT WEATHER AND/OR OBSTRUCTIONS TO VISIBILITY.

NOT ALL STATIONS ARE QUALITY CONTROLLED BY THE NATIONAL
WEATHER SERVICE. USE DATA WITH CAUTION...ESPECIALLY
DEWPOINT OBSERVATIONS.

SCZ027-030-031-034>040-042>050-280400-
...SOUTHEAST SOUTH CAROLINA...

CITY           SKY/WX    TMP DP  RH WIND       PRES   REMARKS
N CHARLESTON   PTCLDY    75  67  76 SE3       30.21S
WATERFRONT PAR   N/A     77  70  79 SE7       30.19R
MOUNT PLEASANT FAIR      70  68  94 CALM      30.22S
JOHNS ISLAND   CLEAR     72  68  88 CALM      30.22S
PINOPOLIS        N/A     75  68  78 CALM      30.15R
MONCKS CORNER  FAIR      72  66  83 CALM      30.22R
SUMMERVILLE    FAIR      70  68  94 CALM      30.23S
BEAUFORT MCAS  PTCLDY    73  68  84 CALM      30.21S
BEAUFORT ARPT  FAIR      72  70  94 CALM      30.21R
HILTON HEAD IS MOCLDY    72  68  88 CALM      30.22S
WALTERBORO     PTCLDY    68  64  88 CALM      30.23R
ALLENDALE      FAIR      70  68  94 CALM      30.21R

...SOUTHERN MIDLANDS AND PEE DEE...

CITY           SKY/WX    TMP DP  RH WIND       PRES   REMARKS
GEORGETOWN     NOT AVBL
KINGSTREE      NOT AVBL
ORANGEBURG     PTCLDY    71  67  87 CALM      30.22R
BARNWELL       FAIR      73  66  78 E3        30.22S
AIKEN          FAIR      72  64  78 CALM      30.26R
MANNING        MOCLDY    70  68  94 CALM      30.22S
COLUMBIA       PTCLDY    73  68  84 CALM      30.22R
SUMTER         CLOUDY    72  70  93 E2        30.21R
FLORENCE       MOCLDY    72  70  93 S3        30.22R
MYRTLE BEACH   MOCLDY    75  66  73 SE10      30.25R
N MYRTLE BEACH PTCLDY    76  68  76 S9        30.23R

$$

GAZ063-065-086>088-099>101-113>116-118-119-134>141-150-280400-
...SOUTHEAST GEORGIA...

CITY           SKY/WX    TMP DP  RH WIND       PRES   REMARKS
SAVANNAH ARPT  MOCLDY    75  65  70 SE5       30.21S
HUNTER AAF     MOCLDY    74  67  80 SE2       30.18S
FORT STEWART   PTCLDY    71  65  83 CALM      30.19S
STATESBORO     PTCLDY    71  68  92 CALM      30.22S
SYLVANIA       PTCLDY    72  69  91 CALM      30.22S
CLAXTON        FAIR      68  66  94 CALM      30.21S

...CSRA...CENTRAL AND FAR SOUTHEAST GEORGIA...

CITY           SKY/WX    TMP DP  RH WIND       PRES   REMARKS
THOMSON        MOCLDY    72  72 100 CALM      30.26S
AUGUSTA-BUSH   CLOUDY    74  68  81 S6        30.20R
AUGUSTA-DANIEL CLOUDY    78  67  68 S6        30.22R
SWAINSBORO     FAIR      75  75 100 SE3       30.22R
VIDALIA        PTCLDY    72  66  83 SE3       30.21S
EASTMAN        FAIR      74  70  87 SE3       30.23R
HAZLEHURST     FAIR      75  66  73 SE5       30.20R
ALMA           PTCLDY    73  64  73 SE5       30.20R
WAYCROSS       CLEAR     72  67  86 E3        30.20S
JESUP          FAIR      70  68  94 CALM      30.21S
BAXLEY         FAIR      73  64  73 CALM      30.20S
BRUNSWICK        N/A     68  64  88 NE3       30.21S
SAINT SIMONS   NOT AVBL

$$

SCZ027-028-034-036>038-045-046-048>050-GAZ119-141-280400-
...LAKE AND SUPPLEMENTAL COASTAL OBSERVATIONS...

STATION/POSITION TIME  TEMP    WIND        PRES    WAVE   SWELL
                       AIR SEA DIR/SP/G            HT/PER HT/PER/DIR
                 (UTC) (F)     (DEG/KT/KT) (MB)    (FT/S) (FT/S/D)
UPR LAKE MARION  NOT AVBL
WINYAH BAY       0200   73     290/  1     1022.0
LAKE MURRAY      0200   75     140/  6/  9 1022.0R
ACE BASIN NERRS  NOT AVBL
FORT PULASKI     0300   76 79  130/  2/  2 1023.4R
SAPELO ISLAND    0300   75     120/  3     1023.0S

$$

ANZ835-935-AMZ111-154-330-350-352-354-370-450-454-472-280400-
...C-MAN AND BUOY OBSERVATIONS...

STATION/POSITION TIME  TEMP    WIND        PRES    WAVE   SWELL
                       AIR SEA DIR/SP/G            HT/PER HT/PER/DIR
                 (UTC) (F)     (DEG/KT/KT) (MB)    (FT/S) (FT/S/D)
BUOY 41004       0250   77 78  120/  8/ 10 1022.9R   3/ 8   2/ 8
BUOY 41008       0250   78 78  130/ 10/ 12 1023.0R   3/ 7   2/110/ 7
FOLLY BEACH CMAN 0300   77     130/ 10/ 10 1023.2R
CAPERS NEARSHORE 0208   77     150/  8/ 12 1023.2R
FRIPP NEARSHORE  0200   78     170/  6/  6 1022.4R


STATION/POSITION TIME  TEMP    WIND        PRES    WAVE   SWELL
                       AIR SEA DIR/SP/G            HT/PER HT/PER/DIR
                 (UTC) (F)     (DEG/KT/KT) (MB)    (FT/S) (FT/S/D)
5E ST. MARYS GA  0221      80                N/A     3/ 7
FRYING PAN BUOY  0250   76 75  160/  8/ 10 1024.6R   4/ 7   3/110/ 7
BUOY 41025       0250   74 77  180/ 12/ 14 1025.0R   3/ 7   2/130/ 7
CAPE LOOKOUT NC  0300   74     170/  8/  8 1024.4R
BUOY 41002       0250   73 74  100/ 10/ 14 1024.4R   5/ 8   5/110/ 8
BUOY 41010       0220   77 80   80/ 12/ 16 1022.1R
ST AUGUSTINE FL  0300   77 80  120/ 11/ 12 1023.1R


$$


USA.gov is the U.S. government's official web portal to all federal, state and local government web resources and services.